Time,TemperatureF,DewpointF,PressureIn,WindDirection,WindDirectionDegrees,WindSpeedMPH,WindSpeedGustMPH,Humidity,HourlyPrecipIn,Conditions,Clouds,dailyrainin,SoftwareType,DateUTC
2013-05-18 00:01:00,81.5,19.8,29.91,NNW,338,7.8,13.0,7,0.00,,,0.00,WUHU216HW,2013-05-18 06:01:00,
2013-05-18 00:06:00,81.5,19.8,29.92,WNW,293,6.7,12.1,7,0.00,,,0.00,WUHU216HW,2013-05-18 06:06:00,
2013-05-18 00:11:00,81.5,19.8,29.91,West,270,9.4,16.6,7,0.00,,,0.00,WUHU216HW,2013-05-18 06:11:00,
2013-05-18 00:16:00,81.4,19.6,29.91,NNW,338,11.2,16.6,7,0.00,,,0.00,WUHU216HW,2013-05-18 06:16:00,
2013-05-18 00:21:00,81.4,19.6,29.91,WNW,293,6.3,12.1,8,0.00,,,0.00,WUHU216HW,2013-05-18 06:21:00,
2013-05-18 00:26:00,81.4,19.6,29.91,West,270,5.1,12.1,8,0.00,,,0.00,WUHU216HW,2013-05-18 06:26:00,
2013-05-18 00:31:00,81.2,19.5,29.91,WSW,248,13.6,13.6,8,0.00,,,0.00,WUHU216HW,2013-05-18 06:31:00,
2013-05-18 00:36:00,81.2,19.5,29.91,WNW,293,6.3,13.6,8,0.00,,,0.00,WUHU216HW,2013-05-18 06:36:00,
2013-05-18 00:41:00,81.0,19.4,29.91,West,270,4.0,13.6,8,0.00,,,0.00,WUHU216HW,2013-05-18 06:41:00,
2013-05-18 00:46:00,81.0,19.4,29.91,West,270,10.5,12.1,8,0.00,,,0.00,WUHU216HW,2013-05-18 06:46:00,
2013-05-18 00:51:00,80.8,19.3,29.91,WNW,293,11.4,15.2,8,0.00,,,0.00,WUHU216HW,2013-05-18 06:51:00,
2013-05-18 00:56:00,80.8,19.3,29.91,SW,225,8.9,15.2,8,0.00,,,0.00,WUHU216HW,2013-05-18 06:56:00,
2013-05-18 01:01:00,80.6,19.1,29.91,West,270,15.2,15.2,10,0.00,,,0.00,WUHU216HW,2013-05-18 07:01:00,
2013-05-18 01:06:00,80.6,19.1,29.91,West,270,8.5,15.2,10,0.00,,,0.00,WUHU216HW,2013-05-18 07:06:00,
2013-05-18 01:11:00,80.6,19.1,29.91,SW,225,9.4,12.8,10,0.00,,,0.00,WUHU216HW,2013-05-18 07:11:00,
2013-05-18 01:16:00,80.5,18.9,29.91,NNW,338,8.9,14.5,10,0.00,,,0.00,WUHU216HW,2013-05-18 07:16:00,
2013-05-18 01:21:00,80.3,18.8,29.91,WSW,248,11.0,14.5,10,0.00,,,0.00,WUHU216HW,2013-05-18 07:21:00,
2013-05-18 01:26:00,80.1,20.4,29.91,WNW,293,11.0,12.8,11,0.00,,,0.00,WUHU216HW,2013-05-18 07:26:00,
2013-05-18 01:31:00,80.1,20.4,29.91,West,270,12.1,17.9,11,0.00,,,0.00,WUHU216HW,2013-05-18 07:31:00,
2013-05-18 01:36:00,79.9,21.9,29.91,West,270,14.8,17.9,12,0.00,,,0.00,WUHU216HW,2013-05-18 07:36:00,
2013-05-18 01:41:00,80.1,20.4,29.90,West,270,8.9,18.1,11,0.00,,,0.00,WUHU216HW,2013-05-18 07:41:00,
2013-05-18 01:46:00,79.9,20.2,29.90,NNW,338,9.8,18.1,11,0.00,,,0.00,WUHU216HW,2013-05-18 07:46:00,
2013-05-18 01:51:00,79.6,21.6,29.91,West,270,11.9,16.3,12,0.00,,,0.00,WUHU216HW,2013-05-18 07:51:00,
2013-05-18 01:56:00,79.6,21.6,29.90,WNW,293,8.9,18.6,12,0.00,,,0.00,WUHU216HW,2013-05-18 07:56:00,
2013-05-18 02:01:00,79.6,21.6,29.90,WNW,293,11.4,18.6,12,0.00,,,0.00,WUHU216HW,2013-05-18 08:01:00,
2013-05-18 02:06:00,79.4,21.4,29.91,West,270,10.5,18.6,12,0.00,,,0.00,WUHU216HW,2013-05-18 08:06:00,
2013-05-18 02:11:00,79.2,21.2,29.91,WNW,293,8.7,15.7,12,0.00,,,0.00,WUHU216HW,2013-05-18 08:11:00,
2013-05-18 02:16:00,79.2,21.2,29.90,West,270,15.7,15.7,12,0.00,,,0.00,WUHU216HW,2013-05-18 08:16:00,
2013-05-18 02:21:00,79.2,21.2,29.91,NNW,338,12.8,18.3,12,0.00,,,0.00,WUHU216HW,2013-05-18 08:21:00,
2013-05-18 02:26:00,79.0,21.2,29.91,WNW,293,11.4,18.3,12,0.00,,,0.00,WUHU216HW,2013-05-18 08:26:00,
2013-05-18 02:31:00,78.8,19.4,29.90,WSW,248,6.9,16.1,11,0.00,,,0.00,WUHU216HW,2013-05-18 08:31:00,
2013-05-18 02:36:00,78.8,21.0,29.91,NW,315,8.3,14.8,12,0.00,,,0.00,WUHU216HW,2013-05-18 08:36:00,
2013-05-18 02:41:00,78.8,19.4,29.91,West,270,8.7,15.4,11,0.00,,,0.00,WUHU216HW,2013-05-18 08:41:00,
2013-05-18 02:46:00,78.8,19.4,29.91,NW,315,5.8,15.4,11,0.00,,,0.00,WUHU216HW,2013-05-18 08:46:00,
2013-05-18 02:51:00,78.5,19.1,29.91,West,270,10.7,13.9,11,0.00,,,0.00,WUHU216HW,2013-05-18 08:51:00,
2013-05-18 02:56:00,78.5,19.1,29.91,NW,315,8.7,13.9,11,0.00,,,0.00,WUHU216HW,2013-05-18 08:56:00,
2013-05-18 03:01:00,78.5,20.7,29.91,NW,315,13.6,15.0,12,0.00,,,0.00,WUHU216HW,2013-05-18 09:01:00,
2013-05-18 03:06:00,78.5,20.7,29.91,WNW,293,15.4,18.3,12,0.00,,,0.00,WUHU216HW,2013-05-18 09:06:00,
2013-05-18 03:11:00,78.1,20.4,29.91,WNW,293,17.2,18.3,12,0.00,,,0.00,WUHU216HW,2013-05-18 09:11:00,
2013-05-18 03:16:00,78.1,20.4,29.90,West,270,8.5,18.3,12,0.00,,,0.00,WUHU216HW,2013-05-18 09:16:00,
2013-05-18 03:21:00,77.9,20.3,29.90,WSW,248,11.6,17.2,12,0.00,,,0.00,WUHU216HW,2013-05-18 09:21:00,
2013-05-18 03:26:00,77.8,20.3,29.90,NW,315,8.9,16.3,12,0.00,,,0.00,WUHU216HW,2013-05-18 09:26:00,
2013-05-18 03:31:00,77.8,20.3,29.90,NW,315,10.3,16.3,12,0.00,,,0.00,WUHU216HW,2013-05-18 09:31:00,
2013-05-18 03:36:00,77.6,20.1,29.91,West,270,12.1,17.2,12,0.00,,,0.00,WUHU216HW,2013-05-18 09:36:00,
2013-05-18 03:41:00,77.6,20.1,29.91,West,270,9.2,19.9,12,0.00,,,0.00,WUHU216HW,2013-05-18 09:41:00,
2013-05-18 03:46:00,77.4,20.0,29.91,SW,225,7.6,19.9,12,0.00,,,0.00,WUHU216HW,2013-05-18 09:46:00,
2013-05-18 03:51:00,77.4,20.0,29.92,West,270,9.8,17.0,12,0.00,,,0.00,WUHU216HW,2013-05-18 09:51:00,
2013-05-18 03:56:00,77.2,19.8,29.91,NNW,338,14.8,17.0,12,0.00,,,0.00,WUHU216HW,2013-05-18 09:56:00,
2013-05-18 04:01:00,77.2,19.8,29.92,West,270,13.2,19.2,12,0.00,,,0.00,WUHU216HW,2013-05-18 10:01:00,
2013-05-18 04:06:00,77.2,19.8,29.93,WNW,293,10.5,19.2,12,0.00,,,0.00,WUHU216HW,2013-05-18 10:06:00,
2013-05-18 04:11:00,77.0,19.7,29.92,NNW,338,9.2,15.7,12,0.00,,,0.00,WUHU216HW,2013-05-18 10:11:00,
2013-05-18 04:16:00,76.9,19.5,29.92,NNW,338,12.1,12.1,12,0.00,,,0.00,WUHU216HW,2013-05-18 10:16:00,
2013-05-18 04:21:00,76.9,19.5,29.92,NNW,338,9.2,12.3,12,0.00,,,0.00,WUHU216HW,2013-05-18 10:21:00,
2013-05-18 04:26:00,76.9,19.5,29.92,West,270,8.7,15.0,12,0.00,,,0.00,WUHU216HW,2013-05-18 10:26:00,
2013-05-18 04:31:00,76.9,19.5,29.92,NNW,338,6.9,17.7,12,0.00,,,0.00,WUHU216HW,2013-05-18 10:31:00,
2013-05-18 04:36:00,76.7,19.5,29.93,NW,315,5.8,17.7,12,0.00,,,0.00,WUHU216HW,2013-05-18 10:36:00,
2013-05-18 04:41:00,76.7,19.5,29.93,WNW,293,13.2,13.2,12,0.00,,,0.00,WUHU216HW,2013-05-18 10:41:00,
2013-05-18 04:46:00,76.7,19.5,29.93,NW,315,7.6,13.2,12,0.00,,,0.00,WUHU216HW,2013-05-18 10:46:00,
2013-05-18 04:51:00,76.5,19.3,29.93,WNW,293,13.6,13.6,12,0.00,,,0.00,WUHU216HW,2013-05-18 10:51:00,
2013-05-18 04:56:00,76.5,19.3,29.94,NNW,338,5.6,13.6,12,0.00,,,0.00,WUHU216HW,2013-05-18 10:56:00,
2013-05-18 05:01:00,76.7,19.5,29.94,NW,315,3.6,13.6,12,0.00,,,0.00,WUHU216HW,2013-05-18 11:01:00,
2013-05-18 05:06:00,76.3,19.1,29.94,North,0,3.4,11.4,12,0.00,,,0.00,WUHU216HW,2013-05-18 11:06:00,
2013-05-18 05:11:00,76.0,20.5,29.94,NNW,338,1.3,9.4,13,0.00,,,0.00,WUHU216HW,2013-05-18 11:11:00,
2013-05-18 05:16:00,75.8,20.3,29.95,East,90,1.8,9.4,13,0.00,,,0.00,WUHU216HW,2013-05-18 11:16:00,
2013-05-18 05:21:00,75.4,20.1,29.94,NE,45,1.6,7.4,13,0.00,,,0.00,WUHU216HW,2013-05-18 11:21:00,
2013-05-18 05:26:00,75.1,19.8,29.95,East,90,1.8,7.4,13,0.00,,,0.00,WUHU216HW,2013-05-18 11:26:00,
2013-05-18 05:31:00,74.7,19.5,29.95,ESE,113,3.6,5.1,13,0.00,,,0.00,WUHU216HW,2013-05-18 11:31:00,
2013-05-18 05:36:00,74.2,19.1,29.95,East,90,2.9,4.0,13,0.00,,,0.00,WUHU216HW,2013-05-18 11:36:00,
2013-05-18 05:41:00,73.8,18.9,29.95,ESE,113,3.1,3.6,13,0.00,,,0.00,WUHU216HW,2013-05-18 11:41:00,
2013-05-18 05:46:00,73.4,20.3,29.96,East,90,2.7,3.6,14,0.00,,,0.00,WUHU216HW,2013-05-18 11:46:00,
2013-05-18 05:51:00,73.3,21.7,29.96,East,90,2.5,3.6,15,0.00,,,0.00,WUHU216HW,2013-05-18 11:51:00,
2013-05-18 05:56:00,73.1,21.6,29.96,ENE,68,2.0,3.6,15,0.00,,,0.00,WUHU216HW,2013-05-18 11:56:00,
2013-05-18 06:01:00,73.1,21.6,29.96,East,90,1.8,2.9,15,0.00,,,0.00,WUHU216HW,2013-05-18 12:01:00,
2013-05-18 06:06:00,72.9,21.4,29.96,ENE,68,2.7,2.9,15,0.00,,,0.00,WUHU216HW,2013-05-18 12:06:00,
2013-05-18 06:11:00,72.7,21.2,29.96,ENE,68,2.0,3.4,15,0.00,,,0.00,WUHU216HW,2013-05-18 12:11:00,
2013-05-18 06:16:00,72.9,21.4,29.96,ESE,113,1.8,5.4,15,0.00,,,0.00,WUHU216HW,2013-05-18 12:16:00,
2013-05-18 06:21:00,72.9,21.4,29.97,North,0,0.7,5.4,15,0.00,,,0.00,WUHU216HW,2013-05-18 12:21:00,
2013-05-18 06:26:00,72.7,21.2,29.97,NNE,23,0.0,1.8,15,0.00,,,0.00,WUHU216HW,2013-05-18 12:26:00,
2013-05-18 06:31:00,72.5,21.1,29.97,ENE,68,1.1,1.6,15,0.00,,,0.00,WUHU216HW,2013-05-18 12:31:00,
2013-05-18 06:36:00,72.4,21.0,29.97,SW,225,2.7,3.4,15,0.00,,,0.00,WUHU216HW,2013-05-18 12:36:00,
2013-05-18 06:41:00,72.5,21.1,29.98,WNW,293,1.1,3.4,15,0.00,,,0.00,WUHU216HW,2013-05-18 12:41:00,
2013-05-18 06:46:00,73.1,21.6,29.98,North,0,2.5,4.7,15,0.00,,,0.00,WUHU216HW,2013-05-18 12:46:00,
2013-05-18 06:51:00,73.3,21.7,29.98,West,270,1.1,4.7,15,0.00,,,0.00,WUHU216HW,2013-05-18 12:51:00,
2013-05-18 06:56:00,73.6,22.0,29.98,West,270,2.0,4.0,15,0.00,,,0.00,WUHU216HW,2013-05-18 12:56:00,
2013-05-18 07:01:00,73.6,22.0,29.98,WSW,248,0.9,4.0,15,0.00,,,0.00,WUHU216HW,2013-05-18 13:01:00,
2013-05-18 07:06:00,73.8,22.1,29.99,NW,315,2.0,4.9,15,0.00,,,0.00,WUHU216HW,2013-05-18 13:06:00,
2013-05-18 07:11:00,74.0,22.3,29.99,West,270,1.8,4.9,15,0.00,,,0.00,WUHU216HW,2013-05-18 13:11:00,
2013-05-18 07:16:00,74.0,22.3,29.99,NNW,338,0.4,3.8,15,0.00,,,0.00,WUHU216HW,2013-05-18 13:16:00,
2013-05-18 07:21:00,73.8,22.1,29.99,NNW,338,2.5,4.7,15,0.00,,,0.00,WUHU216HW,2013-05-18 13:21:00,
2013-05-18 07:26:00,73.8,22.1,29.99,WNW,293,3.1,5.4,15,0.00,,,0.00,WUHU216HW,2013-05-18 13:26:00,
2013-05-18 07:31:00,73.8,22.1,29.99,West,270,0.4,5.4,15,0.00,,,0.00,WUHU216HW,2013-05-18 13:31:00,
2013-05-18 07:36:00,73.8,22.1,29.99,WSW,248,1.8,4.0,15,0.00,,,0.00,WUHU216HW,2013-05-18 13:36:00,
2013-05-18 07:41:00,74.0,24.0,29.99,NW,315,0.9,2.7,16,0.00,,,0.00,WUHU216HW,2013-05-18 13:41:00,
2013-05-18 07:46:00,74.7,24.5,29.99,SW,225,0.0,2.5,16,0.00,,,0.00,WUHU216HW,2013-05-18 13:46:00,
2013-05-18 07:51:00,75.4,23.4,29.99,West,270,1.1,4.0,15,0.00,,,0.00,WUHU216HW,2013-05-18 13:51:00,
2013-05-18 07:56:00,76.0,23.8,29.99,West,270,1.6,4.0,15,0.00,,,0.00,WUHU216HW,2013-05-18 13:56:00,
2013-05-18 08:01:00,76.5,24.2,29.99,NNW,338,1.1,4.9,15,0.00,,,0.00,WUHU216HW,2013-05-18 14:01:00,
2013-05-18 08:06:00,76.7,24.4,29.99,NW,315,2.9,4.9,15,0.00,,,0.00,WUHU216HW,2013-05-18 14:06:00,
2013-05-18 08:11:00,77.0,24.7,30.00,West,270,5.6,5.6,15,0.00,,,0.00,WUHU216HW,2013-05-18 14:11:00,
2013-05-18 08:16:00,77.4,24.9,30.00,West,270,2.9,5.6,15,0.00,,,0.00,WUHU216HW,2013-05-18 14:16:00,
2013-05-18 08:21:00,77.6,21.8,30.00,WNW,293,4.5,7.6,13,0.00,,,0.00,WUHU216HW,2013-05-18 14:21:00,
2013-05-18 08:26:00,77.6,21.8,30.00,NNW,338,2.5,7.6,13,0.00,,,0.00,WUHU216HW,2013-05-18 14:26:00,
2013-05-18 08:31:00,77.8,21.9,30.00,West,270,8.1,10.7,13,0.00,,,0.00,WUHU216HW,2013-05-18 14:31:00,
2013-05-18 08:36:00,77.6,25.0,30.00,West,270,1.6,10.7,15,0.00,,,0.00,WUHU216HW,2013-05-18 14:36:00,
2013-05-18 08:41:00,78.1,22.2,30.01,North,0,2.9,8.1,13,0.00,,,0.00,WUHU216HW,2013-05-18 14:41:00,
2013-05-18 08:46:00,78.1,22.2,30.01,NW,315,5.6,7.2,13,0.00,,,0.00,WUHU216HW,2013-05-18 14:46:00,
2013-05-18 08:51:00,78.3,22.2,30.01,West,270,3.4,7.2,13,0.00,,,0.00,WUHU216HW,2013-05-18 14:51:00,
2013-05-18 08:56:00,78.5,22.4,30.01,NW,315,4.7,6.9,13,0.00,,,0.00,WUHU216HW,2013-05-18 14:56:00,
2013-05-18 09:01:00,78.3,22.2,30.01,NW,315,5.4,6.9,13,0.00,,,0.00,WUHU216HW,2013-05-18 15:01:00,
2013-05-18 09:06:00,78.7,25.9,30.01,North,0,6.9,7.6,15,0.00,,,0.00,WUHU216HW,2013-05-18 15:06:00,
2013-05-18 09:11:00,78.7,22.5,30.01,WSW,248,3.8,7.6,13,0.00,,,0.00,WUHU216HW,2013-05-18 15:11:00,
2013-05-18 09:16:00,79.0,22.8,30.01,WSW,248,6.7,7.2,13,0.00,,,0.00,WUHU216HW,2013-05-18 15:16:00,
2013-05-18 09:21:00,79.4,26.5,30.01,West,270,6.9,13.9,15,0.00,,,0.00,WUHU216HW,2013-05-18 15:21:00,
2013-05-18 09:26:00,79.7,26.8,30.01,West,270,5.6,13.9,15,0.00,,,0.00,WUHU216HW,2013-05-18 15:26:00,
2013-05-18 09:31:00,79.9,26.9,30.01,WNW,293,6.3,9.2,15,0.00,,,0.00,WUHU216HW,2013-05-18 15:31:00,
2013-05-18 09:36:00,79.9,26.9,30.01,NNW,338,7.4,9.8,15,0.00,,,0.00,WUHU216HW,2013-05-18 15:36:00,
2013-05-18 09:41:00,80.3,27.3,30.01,West,270,6.5,9.8,15,0.00,,,0.00,WUHU216HW,2013-05-18 15:41:00,
2013-05-18 09:46:00,80.3,28.9,30.01,WNW,293,8.9,11.4,16,0.00,,,0.00,WUHU216HW,2013-05-18 15:46:00,
2013-05-18 09:51:00,80.5,27.4,30.01,WNW,293,8.5,11.4,15,0.00,,,0.00,WUHU216HW,2013-05-18 15:51:00,
2013-05-18 09:56:00,80.3,27.3,30.01,WNW,293,10.5,11.0,15,0.00,,,0.00,WUHU216HW,2013-05-18 15:56:00,
2013-05-18 10:01:00,80.5,27.4,30.01,North,0,5.8,11.0,15,0.00,,,0.00,WUHU216HW,2013-05-18 16:01:00,
2013-05-18 10:06:00,80.6,27.5,30.01,NNW,338,5.4,10.5,15,0.00,,,0.00,WUHU216HW,2013-05-18 16:06:00,
2013-05-18 10:11:00,81.2,28.0,30.00,WNW,293,3.4,10.5,15,0.00,,,0.00,WUHU216HW,2013-05-18 16:11:00,
2013-05-18 10:16:00,81.5,28.3,30.00,NW,315,7.6,11.4,15,0.00,,,0.00,WUHU216HW,2013-05-18 16:16:00,
2013-05-18 10:21:00,81.7,28.5,30.00,North,0,3.1,11.4,15,0.00,,,0.00,WUHU216HW,2013-05-18 16:21:00,
2013-05-18 10:26:00,82.3,25.5,30.00,WNW,293,3.8,9.4,13,0.00,,,0.00,WUHU216HW,2013-05-18 16:26:00,
2013-05-18 10:31:00,82.8,29.3,30.00,WSW,248,5.1,9.4,15,0.00,,,0.00,WUHU216HW,2013-05-18 16:31:00,
2013-05-18 10:36:00,83.2,26.1,30.00,West,270,4.7,9.4,13,0.00,,,0.00,WUHU216HW,2013-05-18 16:36:00,
2013-05-18 10:41:00,83.2,26.1,30.00,SW,225,8.5,11.6,13,0.00,,,0.00,WUHU216HW,2013-05-18 16:41:00,
2013-05-18 10:46:00,83.3,26.3,30.00,NW,315,2.0,13.4,13,0.00,,,0.00,WUHU216HW,2013-05-18 16:46:00,
2013-05-18 10:51:00,83.7,26.6,30.00,NW,315,4.0,13.4,13,0.00,,,0.00,WUHU216HW,2013-05-18 16:51:00,
2013-05-18 10:56:00,83.3,26.3,29.99,North,0,5.8,8.1,13,0.00,,,0.00,WUHU216HW,2013-05-18 16:56:00,
2013-05-18 11:01:00,83.3,28.0,29.99,West,270,5.8,10.7,14,0.00,,,0.00,WUHU216HW,2013-05-18 17:01:00,
2013-05-18 11:06:00,83.5,26.4,29.99,WSW,248,7.6,10.7,13,0.00,,,0.00,WUHU216HW,2013-05-18 17:06:00,
2013-05-18 11:11:00,84.1,26.8,29.99,WSW,248,6.5,11.0,13,0.00,,,0.00,WUHU216HW,2013-05-18 17:11:00,
2013-05-18 11:16:00,84.6,25.5,29.99,WNW,293,6.9,11.0,12,0.00,,,0.00,WUHU216HW,2013-05-18 17:16:00,
2013-05-18 11:21:00,84.6,27.2,29.99,WSW,248,3.1,10.5,13,0.00,,,0.00,WUHU216HW,2013-05-18 17:21:00,
2013-05-18 11:26:00,84.6,25.5,29.99,West,270,9.6,13.9,12,0.00,,,0.00,WUHU216HW,2013-05-18 17:26:00,
2013-05-18 11:31:00,84.8,25.7,29.99,West,270,9.4,13.9,12,0.00,,,0.00,WUHU216HW,2013-05-18 17:31:00,
2013-05-18 11:36:00,85.0,25.7,29.99,WSW,248,6.3,10.5,12,0.00,,,0.00,WUHU216HW,2013-05-18 17:36:00,
2013-05-18 11:41:00,85.1,25.9,29.99,NW,315,5.4,10.1,12,0.00,,,0.00,WUHU216HW,2013-05-18 17:41:00,
2013-05-18 11:46:00,85.3,27.8,29.99,NNW,338,6.3,10.1,13,0.00,,,0.00,WUHU216HW,2013-05-18 17:46:00,
2013-05-18 11:51:00,85.3,27.8,29.98,North,0,8.5,9.6,13,0.00,,,0.00,WUHU216HW,2013-05-18 17:51:00,
2013-05-18 11:56:00,86.0,26.6,29.98,West,270,6.3,10.5,12,0.00,,,0.00,WUHU216HW,2013-05-18 17:56:00,
2013-05-18 12:01:00,86.0,26.6,29.98,WNW,293,3.8,10.7,12,0.00,,,0.00,WUHU216HW,2013-05-18 18:01:00,
2013-05-18 12:06:00,86.0,24.9,29.98,WSW,248,7.8,13.2,11,0.00,,,0.00,WUHU216HW,2013-05-18 18:06:00,
2013-05-18 12:11:00,86.0,24.9,29.98,NW,315,4.7,13.2,11,0.00,,,0.00,WUHU216HW,2013-05-18 18:11:00,
2013-05-18 12:16:00,85.7,26.4,29.98,WSW,248,10.1,11.0,12,0.00,,,0.00,WUHU216HW,2013-05-18 18:16:00,
2013-05-18 12:21:00,86.0,26.6,29.98,SSE,158,4.3,11.0,12,0.00,,,0.00,WUHU216HW,2013-05-18 18:21:00,
2013-05-18 12:25:00,86.8,27.3,29.97,NW,315,3.4,10.5,12,0.00,,,0.00,WUHU216HW,2013-05-18 18:25:00,
2013-05-18 12:30:00,87.5,27.8,29.97,SSW,203,3.4,11.9,12,0.00,,,0.00,WUHU216HW,2013-05-18 18:30:00,
2013-05-18 12:35:00,88.4,26.7,29.97,SW,225,6.5,11.9,11,0.00,,,0.00,WUHU216HW,2013-05-18 18:35:00,
2013-05-18 12:40:00,88.9,25.4,29.97,West,270,9.8,13.6,10,0.00,,,0.00,WUHU216HW,2013-05-18 18:40:00,
2013-05-18 12:45:00,88.0,26.6,29.97,WNW,293,7.2,13.6,11,0.00,,,0.00,WUHU216HW,2013-05-18 18:45:00,
2013-05-18 12:50:00,87.7,26.3,29.97,WSW,248,8.3,12.1,11,0.00,,,0.00,WUHU216HW,2013-05-18 18:50:00,
2013-05-18 12:55:00,87.8,26.4,29.96,WSW,248,11.0,12.1,11,0.00,,,0.00,WUHU216HW,2013-05-18 18:55:00,
2013-05-18 13:01:00,87.3,24.2,29.96,North,0,3.4,15.2,10,0.00,,,0.00,WUHU216HW,2013-05-18 19:01:00,
2013-05-18 13:05:00,87.3,25.9,29.96,WSW,248,7.6,15.2,11,0.00,,,0.00,WUHU216HW,2013-05-18 19:05:00,
2013-05-18 13:11:00,88.4,26.7,29.96,WSW,248,5.8,10.7,11,0.00,,,0.00,WUHU216HW,2013-05-18 19:11:00,
2013-05-18 13:16:00,89.1,25.6,29.95,SW,225,4.9,18.3,10,0.00,,,0.00,WUHU216HW,2013-05-18 19:16:00,
2013-05-18 13:20:00,89.3,25.7,29.95,WSW,248,7.6,18.3,10,0.00,,,0.00,WUHU216HW,2013-05-18 19:20:00,
2013-05-18 13:25:00,89.6,25.9,29.95,WSW,248,4.7,8.9,10,0.00,,,0.00,WUHU216HW,2013-05-18 19:25:00,
2013-05-18 13:30:00,89.1,27.3,29.95,SW,225,2.9,12.1,11,0.00,,,0.00,WUHU216HW,2013-05-18 19:30:00,
2013-05-18 13:36:00,89.5,27.6,29.94,South,180,10.3,12.1,11,0.00,,,0.00,WUHU216HW,2013-05-18 19:36:00,
2013-05-18 13:41:00,89.8,26.1,29.94,SW,225,8.7,13.4,10,0.00,,,0.00,WUHU216HW,2013-05-18 19:41:00,
2013-05-18 13:46:00,89.6,27.6,29.94,WSW,248,9.2,13.4,11,0.00,,,0.00,WUHU216HW,2013-05-18 19:46:00,
2013-05-18 13:51:00,89.8,26.1,29.94,NW,315,4.7,9.8,10,0.00,,,0.00,WUHU216HW,2013-05-18 19:51:00,
2013-05-18 13:55:00,89.6,27.6,29.94,WSW,248,10.1,11.9,11,0.00,,,0.00,WUHU216HW,2013-05-18 19:55:00,
2013-05-18 14:00:00,88.9,27.2,29.93,SSE,158,7.8,12.8,11,0.00,,,0.00,WUHU216HW,2013-05-18 20:00:00,
2013-05-18 14:06:00,89.6,27.6,29.93,West,270,5.8,12.8,11,0.00,,,0.00,WUHU216HW,2013-05-18 20:06:00,
2013-05-18 14:11:00,89.5,25.8,29.93,West,270,6.9,12.1,10,0.00,,,0.00,WUHU216HW,2013-05-18 20:11:00,
2013-05-18 14:16:00,89.5,27.6,29.93,West,270,7.4,11.9,11,0.00,,,0.00,WUHU216HW,2013-05-18 20:16:00,
2013-05-18 14:21:00,90.0,26.2,29.93,WSW,248,5.6,10.5,10,0.00,,,0.00,WUHU216HW,2013-05-18 20:21:00,
2013-05-18 14:26:00,90.2,26.4,29.93,WSW,248,5.4,12.1,10,0.00,,,0.00,WUHU216HW,2013-05-18 20:26:00,
2013-05-18 14:30:00,90.7,26.8,29.92,SW,225,7.6,12.1,10,0.00,,,0.00,WUHU216HW,2013-05-18 20:30:00,
2013-05-18 14:36:00,91.3,27.2,29.92,South,180,5.8,9.8,10,0.00,,,0.00,WUHU216HW,2013-05-18 20:36:00,
2013-05-18 14:41:00,92.0,27.7,29.92,West,270,10.7,14.3,8,0.00,,,0.00,WUHU216HW,2013-05-18 20:41:00,
2013-05-18 14:46:00,91.4,27.4,29.92,SSE,158,9.2,14.3,8,0.00,,,0.00,WUHU216HW,2013-05-18 20:46:00,
2013-05-18 14:51:00,91.6,27.5,29.91,West,270,7.6,10.7,8,0.00,,,0.00,WUHU216HW,2013-05-18 20:51:00,
2013-05-18 14:56:00,90.9,26.9,29.91,West,270,3.8,13.6,8,0.00,,,0.00,WUHU216HW,2013-05-18 20:56:00,
2013-05-18 15:01:00,90.5,26.6,29.92,SSE,158,7.8,13.6,8,0.00,,,0.00,WUHU216HW,2013-05-18 21:01:00,
2013-05-18 15:05:00,90.5,26.6,29.91,WSW,248,5.4,13.4,8,0.00,,,0.00,WUHU216HW,2013-05-18 21:05:00,
2013-05-18 15:10:00,90.4,26.5,29.91,West,270,6.9,11.0,8,0.00,,,0.00,WUHU216HW,2013-05-18 21:10:00,
2013-05-18 15:15:00,91.1,27.1,29.91,SW,225,6.9,11.0,8,0.00,,,0.00,WUHU216HW,2013-05-18 21:15:00,
2013-05-18 15:20:00,91.1,27.1,29.91,NNW,338,11.4,13.2,7,0.00,,,0.00,WUHU216HW,2013-05-18 21:20:00,
2013-05-18 15:25:00,90.5,26.6,29.91,West,270,11.9,13.2,8,0.00,,,0.00,WUHU216HW,2013-05-18 21:25:00,
2013-05-18 15:30:00,90.4,26.5,29.91,WSW,248,8.3,12.5,8,0.00,,,0.00,WUHU216HW,2013-05-18 21:30:00,
2013-05-18 15:35:00,90.4,26.5,29.90,WSW,248,10.7,12.5,10,0.00,,,0.00,WUHU216HW,2013-05-18 21:35:00,
2013-05-18 15:40:00,90.4,26.5,29.90,South,180,8.1,12.8,8,0.00,,,0.00,WUHU216HW,2013-05-18 21:40:00,
2013-05-18 15:45:00,90.7,26.8,29.90,WSW,248,13.2,14.3,7,0.00,,,0.00,WUHU216HW,2013-05-18 21:45:00,
2013-05-18 15:50:00,90.5,26.6,29.90,SSW,203,6.9,18.6,6,0.00,,,0.00,WUHU216HW,2013-05-18 21:50:00,
2013-05-18 15:55:00,90.7,26.8,29.90,WSW,248,5.8,18.6,7,0.00,,,0.00,WUHU216HW,2013-05-18 21:55:00,
2013-05-18 16:00:00,90.7,26.8,29.89,NW,315,7.4,14.3,7,0.00,,,0.00,WUHU216HW,2013-05-18 22:00:00,
2013-05-18 16:05:00,90.2,26.4,29.89,West,270,4.0,14.3,7,0.00,,,0.00,WUHU216HW,2013-05-18 22:05:00,
2013-05-18 16:10:00,90.0,26.2,29.89,WSW,248,1.8,15.7,7,0.00,,,0.00,WUHU216HW,2013-05-18 22:10:00,
2013-05-18 16:15:00,90.4,26.5,29.89,NW,315,11.2,15.7,6,0.00,,,0.00,WUHU216HW,2013-05-18 22:15:00,
2013-05-18 16:20:00,90.7,26.8,29.89,SSW,203,7.2,15.0,6,0.00,,,0.00,WUHU216HW,2013-05-18 22:20:00,
2013-05-18 16:25:00,90.7,26.8,29.89,WSW,248,9.4,11.2,6,0.00,,,0.00,WUHU216HW,2013-05-18 22:25:00,
2013-05-18 16:30:00,90.7,26.8,29.89,WSW,248,9.4,13.0,6,0.00,,,0.00,WUHU216HW,2013-05-18 22:30:00,
2013-05-18 16:35:00,90.7,26.8,29.88,SSW,203,3.6,14.5,6,0.00,,,0.00,WUHU216HW,2013-05-18 22:35:00,
2013-05-18 16:40:00,90.7,26.8,29.88,SW,225,6.7,14.5,6,0.00,,,0.00,WUHU216HW,2013-05-18 22:40:00,
2013-05-18 16:45:00,90.7,26.8,29.88,WSW,248,6.7,15.7,6,0.00,,,0.00,WUHU216HW,2013-05-18 22:45:00,
2013-05-18 16:50:00,91.3,27.2,29.88,SW,225,9.8,15.7,6,0.00,,,0.00,WUHU216HW,2013-05-18 22:50:00,
2013-05-18 16:55:00,90.7,26.8,29.88,WSW,248,9.4,15.4,6,0.00,,,0.00,WUHU216HW,2013-05-18 22:55:00,
2013-05-18 17:00:00,90.5,26.6,29.87,SSW,203,6.9,15.7,6,0.00,,,0.00,WUHU216HW,2013-05-18 23:00:00,
2013-05-18 17:05:00,90.5,26.6,29.87,SW,225,4.7,15.7,6,0.00,,,0.00,WUHU216HW,2013-05-18 23:05:00,
2013-05-18 17:10:00,90.4,26.5,29.87,SW,225,14.3,14.3,6,0.00,,,0.00,WUHU216HW,2013-05-18 23:10:00,
2013-05-18 17:15:00,90.4,26.5,29.87,West,270,12.3,15.7,6,0.00,,,0.00,WUHU216HW,2013-05-18 23:15:00,
2013-05-18 17:20:00,90.4,26.5,29.87,NNW,338,8.5,15.7,6,0.00,,,0.00,WUHU216HW,2013-05-18 23:20:00,
2013-05-18 17:25:00,90.4,26.5,29.87,WSW,248,7.4,15.9,6,0.00,,,0.00,WUHU216HW,2013-05-18 23:25:00,
2013-05-18 17:30:00,90.4,26.5,29.86,West,270,10.5,16.3,6,0.00,,,0.00,WUHU216HW,2013-05-18 23:30:00,
2013-05-18 17:35:00,90.2,26.4,29.86,SW,225,11.4,16.3,6,0.00,,,0.00,WUHU216HW,2013-05-18 23:35:00,
2013-05-18 17:40:00,90.4,26.5,29.86,WSW,248,9.2,15.7,6,0.00,,,0.00,WUHU216HW,2013-05-18 23:40:00,
2013-05-18 17:45:00,90.4,26.5,29.86,West,270,7.6,14.8,6,0.00,,,0.00,WUHU216HW,2013-05-18 23:45:00,
2013-05-18 17:50:00,90.2,26.4,29.86,WSW,248,10.7,13.0,6,0.00,,,0.00,WUHU216HW,2013-05-18 23:50:00,
2013-05-18 17:55:00,90.2,26.4,29.86,SW,225,7.6,11.2,6,0.00,,,0.00,WUHU216HW,2013-05-18 23:55:00,
2013-05-18 18:00:00,90.2,26.4,29.86,SW,225,5.6,18.6,6,0.00,,,0.00,WUHU216HW,2013-05-19 00:00:00,
2013-05-18 18:05:00,90.0,26.2,29.86,WSW,248,9.8,18.6,6,0.00,,,0.00,WUHU216HW,2013-05-19 00:05:00,
2013-05-18 18:10:00,90.0,26.2,29.86,SW,225,8.3,12.5,6,0.00,,,0.00,WUHU216HW,2013-05-19 00:10:00,
2013-05-18 18:15:00,90.0,26.2,29.85,WSW,248,3.1,12.5,6,0.00,,,0.00,WUHU216HW,2013-05-19 00:15:00,
2013-05-18 18:20:00,90.9,26.9,29.86,NW,315,3.1,11.6,5,0.00,,,0.00,WUHU216HW,2013-05-19 00:20:00,
2013-05-18 18:25:00,92.2,27.9,29.86,WSW,248,9.2,12.1,3,0.00,,,0.00,WUHU216HW,2013-05-19 00:25:00,
2013-05-18 18:30:00,94.3,29.5,29.86,West,270,11.4,12.1,3,0.00,,,0.00,WUHU216HW,2013-05-19 00:30:00,
2013-05-18 18:35:00,93.4,28.8,29.86,WSW,248,10.5,16.3,2,0.00,,,0.00,WUHU216HW,2013-05-19 00:35:00,
2013-05-18 18:40:00,94.1,29.3,29.86,WNW,293,2.9,16.3,2,0.00,,,0.00,WUHU216HW,2013-05-19 00:40:00,
2013-05-18 18:45:00,94.5,29.6,29.86,WSW,248,12.3,13.0,2,0.00,,,0.00,WUHU216HW,2013-05-19 00:45:00,
2013-05-18 18:50:00,93.6,28.9,29.86,WNW,293,12.5,12.5,2,0.00,,,0.00,WUHU216HW,2013-05-19 00:50:00,
2013-05-18 18:55:00,92.2,27.9,29.86,WSW,248,12.8,18.6,3,0.00,,,0.00,WUHU216HW,2013-05-19 00:55:00,
2013-05-18 19:00:00,92.9,28.4,29.86,SW,225,10.3,18.6,3,0.00,,,0.00,WUHU216HW,2013-05-19 01:00:00,
2013-05-18 19:06:00,92.2,27.9,29.86,North,0,10.3,16.3,3,0.00,,,0.00,WUHU216HW,2013-05-19 01:06:00,
2013-05-18 19:11:00,91.1,27.1,29.86,NNW,338,11.4,14.8,3,0.00,,,0.00,WUHU216HW,2013-05-19 01:11:00,
2013-05-18 19:16:00,89.3,25.7,29.86,NNW,338,9.2,14.5,3,0.00,,,0.00,WUHU216HW,2013-05-19 01:16:00,
2013-05-18 19:21:00,88.0,24.8,29.86,WSW,248,11.4,14.5,4,0.00,,,0.00,WUHU216HW,2013-05-19 01:21:00,
2013-05-18 19:26:00,87.3,24.2,29.86,WNW,293,6.3,14.1,5,0.00,,,0.00,WUHU216HW,2013-05-19 01:26:00,
2013-05-18 19:31:00,86.8,23.8,29.87,West,270,10.1,14.1,5,0.00,,,0.00,WUHU216HW,2013-05-19 01:31:00,
2013-05-18 19:36:00,86.4,23.5,29.86,North,0,6.3,21.3,6,0.00,,,0.00,WUHU216HW,2013-05-19 01:36:00,
2013-05-18 19:41:00,85.9,23.0,29.87,West,270,6.3,21.3,6,0.00,,,0.00,WUHU216HW,2013-05-19 01:41:00,
2013-05-18 19:46:00,85.5,22.8,29.87,West,270,7.6,13.9,6,0.00,,,0.00,WUHU216HW,2013-05-19 01:46:00,
2013-05-18 19:51:00,85.1,22.5,29.87,WSW,248,9.2,12.1,6,0.00,,,0.00,WUHU216HW,2013-05-19 01:51:00,
2013-05-18 19:56:00,84.8,22.2,29.87,WSW,248,7.4,17.2,6,0.00,,,0.00,WUHU216HW,2013-05-19 01:56:00,
2013-05-18 20:01:00,84.4,22.0,29.87,WSW,248,10.5,17.2,6,0.00,,,0.00,WUHU216HW,2013-05-19 02:01:00,
2013-05-18 20:06:00,84.2,21.8,29.87,WSW,248,9.6,15.0,6,0.00,,,0.00,WUHU216HW,2013-05-19 02:06:00,
2013-05-18 20:11:00,83.9,21.5,29.88,WSW,248,9.8,13.6,7,0.00,,,0.00,WUHU216HW,2013-05-19 02:11:00,
2013-05-18 20:16:00,83.9,21.5,29.88,West,270,6.3,13.6,7,0.00,,,0.00,WUHU216HW,2013-05-19 02:16:00,
2013-05-18 20:21:00,83.5,21.2,29.88,WSW,248,6.3,12.8,7,0.00,,,0.00,WUHU216HW,2013-05-19 02:21:00,
2013-05-18 20:26:00,83.3,21.2,29.88,West,270,12.5,14.1,6,0.00,,,0.00,WUHU216HW,2013-05-19 02:26:00,
2013-05-18 20:31:00,83.3,21.2,29.88,WSW,248,8.1,15.7,6,0.00,,,0.00,WUHU216HW,2013-05-19 02:31:00,
2013-05-18 20:36:00,83.2,21.1,29.88,SW,225,3.8,15.7,6,0.00,,,0.00,WUHU216HW,2013-05-19 02:36:00,
2013-05-18 20:41:00,83.0,20.9,29.88,West,270,4.0,13.9,6,0.00,,,0.00,WUHU216HW,2013-05-19 02:41:00,
2013-05-18 20:46:00,82.8,20.8,29.88,WSW,248,6.0,11.0,7,0.00,,,0.00,WUHU216HW,2013-05-19 02:46:00,
2013-05-18 20:51:00,82.6,20.6,29.88,WNW,293,7.4,12.8,7,0.00,,,0.00,WUHU216HW,2013-05-19 02:51:00,
2013-05-18 20:56:00,82.4,20.5,29.88,WSW,248,7.2,13.2,7,0.00,,,0.00,WUHU216HW,2013-05-19 02:56:00,
2013-05-18 21:01:00,82.4,20.5,29.88,WNW,293,6.9,13.2,7,0.00,,,0.00,WUHU216HW,2013-05-19 03:01:00,
2013-05-18 21:06:00,82.3,20.3,29.88,WNW,293,8.3,11.2,7,0.00,,,0.00,WUHU216HW,2013-05-19 03:06:00,
2013-05-18 21:11:00,82.1,20.3,29.88,West,270,7.4,12.1,7,0.00,,,0.00,WUHU216HW,2013-05-19 03:11:00,
2013-05-18 21:16:00,82.1,20.3,29.88,West,270,5.4,12.1,7,0.00,,,0.00,WUHU216HW,2013-05-19 03:16:00,
2013-05-18 21:21:00,81.9,20.1,29.88,NW,315,5.1,11.9,7,0.00,,,0.00,WUHU216HW,2013-05-19 03:21:00,
2013-05-18 21:26:00,81.7,20.0,29.89,West,270,4.5,10.7,7,0.00,,,0.00,WUHU216HW,2013-05-19 03:26:00,
2013-05-18 21:31:00,81.7,20.0,29.89,WSW,248,7.6,12.5,7,0.00,,,0.00,WUHU216HW,2013-05-19 03:31:00,
2013-05-18 21:36:00,81.5,19.8,29.89,NW,315,5.6,17.4,7,0.00,,,0.00,WUHU216HW,2013-05-19 03:36:00,
2013-05-18 21:41:00,81.5,19.8,29.89,West,270,5.1,17.4,7,0.00,,,0.00,WUHU216HW,2013-05-19 03:41:00,
2013-05-18 21:46:00,81.4,19.6,29.90,WSW,248,3.1,15.7,7,0.00,,,0.00,WUHU216HW,2013-05-19 03:46:00,
2013-05-18 21:51:00,81.4,19.6,29.90,West,270,7.4,14.3,7,0.00,,,0.00,WUHU216HW,2013-05-19 03:51:00,
2013-05-18 21:56:00,81.4,19.6,29.90,WSW,248,9.6,11.2,7,0.00,,,0.00,WUHU216HW,2013-05-19 03:56:00,
2013-05-18 22:01:00,81.2,19.5,29.90,SW,225,8.5,11.2,7,0.00,,,0.00,WUHU216HW,2013-05-19 04:01:00,
2013-05-18 22:06:00,81.0,19.4,29.90,WSW,248,10.7,12.8,8,0.00,,,0.00,WUHU216HW,2013-05-19 04:06:00,
2013-05-18 22:11:00,81.0,19.4,29.90,West,270,10.5,13.4,8,0.00,,,0.00,WUHU216HW,2013-05-19 04:11:00,
2013-05-18 22:16:00,80.8,19.3,29.91,WNW,293,8.7,13.4,8,0.00,,,0.00,WUHU216HW,2013-05-19 04:16:00,
2013-05-18 22:21:00,80.6,19.1,29.91,WSW,248,5.1,13.4,8,0.00,,,0.00,WUHU216HW,2013-05-19 04:21:00,
2013-05-18 22:26:00,80.5,18.9,29.91,WSW,248,10.5,13.4,8,0.00,,,0.00,WUHU216HW,2013-05-19 04:26:00,
2013-05-18 22:31:00,80.3,18.8,29.91,WSW,248,9.2,11.4,8,0.00,,,0.00,WUHU216HW,2013-05-19 04:31:00,
2013-05-18 22:36:00,80.1,18.6,29.91,West,270,10.3,11.4,8,0.00,,,0.00,WUHU216HW,2013-05-19 04:36:00,
2013-05-18 22:41:00,79.9,18.6,29.92,West,270,2.5,10.7,8,0.00,,,0.00,WUHU216HW,2013-05-19 04:41:00,
2013-05-18 22:46:00,79.9,18.6,29.92,West,270,4.5,10.7,9,0.00,,,0.00,WUHU216HW,2013-05-19 04:46:00,
2013-05-18 22:51:00,79.6,18.2,29.92,West,270,6.7,8.5,9,0.00,,,0.00,WUHU216HW,2013-05-19 04:51:00,
2013-05-18 22:56:00,79.9,18.6,29.92,NW,315,8.7,12.3,8,0.00,,,0.00,WUHU216HW,2013-05-19 04:56:00,
2013-05-18 23:01:00,79.7,18.4,29.92,WSW,248,5.6,12.3,8,0.00,,,0.00,WUHU216HW,2013-05-19 05:01:00,
2013-05-18 23:06:00,79.6,18.2,29.92,WNW,293,6.0,13.0,10,0.00,,,0.00,WUHU216HW,2013-05-19 05:06:00,
2013-05-18 23:11:00,79.4,18.1,29.92,WSW,248,3.1,13.0,9,0.00,,,0.00,WUHU216HW,2013-05-19 05:11:00,
2013-05-18 23:16:00,79.2,17.9,29.92,West,270,1.6,7.8,9,0.00,,,0.00,WUHU216HW,2013-05-19 05:16:00,
2013-05-18 23:21:00,78.8,17.6,29.92,NW,315,3.4,7.8,10,0.00,,,0.00,WUHU216HW,2013-05-19 05:21:00,
2013-05-18 23:26:00,78.5,17.4,29.92,WNW,293,1.3,7.2,10,0.00,,,0.00,WUHU216HW,2013-05-19 05:26:00,
2013-05-18 23:31:00,78.1,17.1,29.92,NNW,338,1.1,6.0,10,0.00,,,0.00,WUHU216HW,2013-05-19 05:31:00,
2013-05-18 23:36:00,77.8,16.9,29.93,SW,225,5.4,5.4,10,0.00,,,0.00,WUHU216HW,2013-05-19 05:36:00,
2013-05-18 23:41:00,77.8,16.9,29.93,SW,225,0.4,6.3,10,0.00,,,0.00,WUHU216HW,2013-05-19 05:41:00,
2013-05-18 23:46:00,77.6,16.7,29.92,NW,315,2.2,6.3,10,0.00,,,0.00,WUHU216HW,2013-05-19 05:46:00,
2013-05-18 23:51:00,77.4,16.7,29.92,WNW,293,1.6,5.4,10,0.00,,,0.00,WUHU216HW,2013-05-19 05:51:00,
2013-05-18 23:56:00,77.4,16.7,29.93,NW,315,1.1,4.7,10,0.00,,,0.00,WUHU216HW,2013-05-19 05:56:00,